{"data":{"norad_id":68711,"epoch":"2026-09-19T13:30:15.875136Z","epoch_age_seconds":125432,"freshness":"FRESH","line1":"1 68711U 26081N   26262.56268374  .00010085  00000+0  30918-3 0  9996","line2":"2 68711  53.1557 210.1683 0003733  77.3899 282.7521 15.34401716 24477","mean_motion":15.34401716,"eccentricity":0.0003733,"inclination_deg":53.1557,"raan_deg":210.1683,"arg_perigee_deg":77.3899,"mean_anomaly_deg":282.7521,"bstar":0.00030918,"rev_number":2447,"period_min":93.847653126582,"perigee_km":460.1444561405,"apogee_km":465.25182365595,"semimajor_km":6840.8351398982,"source":"CELESTRAK","updated_at":"2026-09-20T09:00:43.960109Z"}}